Погода в Саппоро

Япония     43°04′45″N   141°24′34″E
темп.,
°C
ветер,
м/с
пор.,
м/с
влажн.,
%
обл.,
%
осадки,
мм/ч
давл.,
гПа
погр.,
м
5 марта, пт
пт500:000ююв51190100 0.0 1023355
03:00+1ююв61194100 0.0 1021319
06:00+2ююв51190100 0.0 1020270
09:00+3ююв61110071 0.0 1020292
12:00+4ююв61310092 0.0 1018402
15:00+4ююв61110094 0.0 1017261
18:00+3ююв5109892 0.0 1017205
21:00+2ююв489784 0.0 1016140
6 марта, сб
сб600:00+2зсз369894 0.3 1016196
03:00−3сз7138597 0.8 1017765
06:00−5ссз71192100 0.4 1019851
09:00−6ссз7117898 0.8 10221287
12:00−5ссз71173100 0.3 10221361
15:00−6ссз7107197 0.3 10231355
18:00−7сз598883 0.1 1025707
21:00−8з357773 0.2 1028451
7 марта, вс
вс700:00−9юз227767 0.1 102870
03:00−9юз127956 0.2 102848
06:00−9ю118369 0.4 102962
09:00−6юв227570 0.6 1029336
12:00−3юв227262 0.0 1028680
15:00−3юв227981 0.2 1026484
18:00−5ю238597 0.1 102674
21:00−7ююз228157 0.1 102639
8 марта, пн
пн800:00−7ю22820 0.0 102549
03:00−7ю228215 0.0 102446
06:00−7ююз238321 0.0 102350
09:00−2с128221 0.2 1023251
12:00−1ссз469695 1.3 1023506
15:00−1ссз687798 1.9 1023874
18:00−4ссз388060 0.0 1025267
21:00−6з128133 0.0 102736
9 марта, вт
вт900:00−6юз12790 0.0 102725
03:00−7ююз12790 0.0 102629
06:00−7ю22816 0.0 102646
09:00−3ююв46775 0.0 1025407
12:00+1ююв57740 0.0 1023647
15:00+2ююв58682 0.0 1021675
18:00−1ююв488013 0.0 1019191
21:00−2ю47806 0.0 1018176